Regional Weather Roundup
Issued by NWS

Home | Current Version | Previous Version | Text Only | Print | Product List | Glossary On
Versions: 1 2 3 4 5 6 7 8 9 10 11 12 13 14 15 16 17 18 19 20 21 22 23 24 25 26 27 28
000
ASUS45 KBOI 221310
RWRID

IDAHO REGIONAL WEATHER ROUNDUP
NATIONAL WEATHER SERVICE BOISE ID
700 AM MDT SUN APR 22 2018

NOTE: "FAIR" INDICATES FEW OR NO CLOUDS BELOW 12000 FEET
WITH NO SIGNIFICANT WEATHER AND/OR OBSTRUCTIONS TO VISIBILITY

IDZ012-014-221400-
SOUTHWEST IDAHO


CITY           SKY/WX    TMP DP  RH WIND       PRES   REMARKS
BOISE          MOCLDY    41  24  51 W3        30.14S
CALDWELL       PTCLDY    41  25  53 W9        30.16S
MOUNTAIN HOME  MOCLDY    36  24  61 W6        30.14R WCI  31
$$

IDZ016-017-221400-
SOUTHCENTRAL IDAHO


CITY           SKY/WX    TMP DP  RH WIND       PRES   REMARKS
BURLEY         CLEAR     34  29  82 S3        30.13S
JEROME         CLEAR     41  31  67 SW6       30.15R
TWIN FALLS     CLEAR     41  31  67 S13       30.14S
$$

IDZ019>023-221400-
SOUTHEAST IDAHO


CITY           SKY/WX    TMP DP  RH WIND       PRES   REMARKS
IDAHO FALLS    CLEAR     41  32  70 S8        30.15S
POCATELLO      PTCLDY    38  31  76 E5        30.14F WCI  34
REXBURG        CLEAR     40  29  64 CALM      30.14S
$$

IDZ006-010-011-018-031-032-221400-
CENTRAL IDAHO MOUNTAINS


CITY           SKY/WX    TMP DP  RH WIND       PRES   REMARKS
MCCALL         CLEAR     30  25  81 CALM      30.15S
HAILEY         CLEAR     37  25  60 NW12      30.17R WCI  30
STANLEY          N/A     24  20  84 CALM      30.19F
SALMON         CLEAR     32  29  88 CALM      30.19R
CHALLIS        PTCLDY    34  21  59 CALM      30.15S
$$

IDZ002-004-006-007-026-221400-
NORTHERN IDAHO


CITY           SKY/WX    TMP DP  RH WIND       PRES   REMARKS
LEWISTON       CLEAR     38  27  64 W3        30.29R
LOWELL           N/A     34  32  92 CALM      30.32S
COEUR D`ALENE  CLEAR     30  27  88 SW5       30.26R WCI  25
MULLAN PASS    CLEAR     26  15  63 VRB3      30.15S
$$




USA.gov is the U.S. government's official web portal to all federal, state and local government web resources and services.